[[[{"header":{"parameterUnit":"kt","parameterCategory":2,"dx":1,"dy":1,"la1":30.253999710083008,"la2":30.299108505249023,"lo1":-89.0895004272461,"lo2":-89.04439544677734,"nx":28,"ny":28,"refTime":"2022-10-22T21:00:00:Z","depth":0,"parameterNumber":1,"parameterNumberName":"U-component_of_WINDS"},"data":[-7.2966,-7.3039,-7.3055,-7.3147,-7.3177,-7.3242,-7.327,-7.3308,-7.3343,-7.3422,-7.3471,-7.3494,-7.3534,-7.3596,-7.3649,-7.3658,-7.3678,-7.3694,-7.3701,-7.3618,-7.3607,-7.3597,-7.3579,-7.3699,-7.3699,-7.3782,-7.3783,-7.3784,-7.2908,-7.2938,-7.2991,-7.3053,-7.3099,-7.3094,-7.3143,-7.3181,-7.3239,-7.3282,-7.333,-7.3401,-7.3459,-7.3494,-7.3551,-7.3586,-7.3585,-7.36,-7.3595,-7.3601,-7.3515,-7.3496,-7.36,-7.36,-7.36,-7.36,-7.36,-7.36,-7.2806,-7.2849,-7.2895,-7.2952,-7.2988,-7.3029,-7.3073,-7.31,-7.3152,-7.3213,-7.3222,-7.3287,-7.3332,-7.3408,-7.3437,-7.3489,-7.3474,-7.3494,-7.3498,-7.3502,-7.3504,-7.3379,-7.35,-7.3499,-7.3499,-7.3499,-7.3499,0,-7.2735,-7.2745,-7.2796,-7.2852,-7.2894,-7.2939,-7.2982,-7.301,-7.3035,-7.3076,-7.3137,-7.3174,-7.3249,-7.3306,-7.3363,-7.3389,-7.3384,-7.3386,-7.34,-7.3394,-7.3383,-7.3387,-7.3243,-7.3381,-7.338,-7.3379,-7.3379,-7.3378,-7.263,-7.2679,-7.2734,-7.2768,-7.2794,-7.2849,-7.2884,-7.2902,-7.2938,-7.2994,-7.3031,-7.309,-7.3137,-7.3232,-7.3259,-7.3314,-7.3311,-7.3363,-7.3319,-7.3314,-7.3309,-7.3304,-7.3308,-7.3368,-7.337,-7.3371,-7.3372,0,-7.257,-7.2593,-7.2673,-7.2722,-7.2735,-7.2786,-7.2827,-7.287,-7.2891,-7.2953,-7.2969,-7.2999,-7.3058,-7.3078,-7.3149,-7.3157,-7.324,-7.3238,-7.3225,-7.3224,-7.327,-7.3264,-7.3419,-7.3439,-7.332,-7.3321,-7.3322,0,-7.2488,-7.2551,-7.2582,-7.2626,-7.2698,-7.2712,-7.2783,-7.2806,-7.2843,-7.2893,-7.2892,-7.2938,-7.2956,-7.3005,-7.3017,-7.3089,-7.3103,-7.3112,-7.3113,-7.3109,-7.3108,-7.3124,-7.3117,-7.3119,-7.3118,-7.3117,-7.3116,0,-7.2387,-7.2477,-7.2551,-7.2575,-7.2631,-7.2666,-7.2691,-7.2731,-7.2765,-7.2812,-7.2834,-7.2888,-7.2916,-7.2958,-7.2972,-7.2942,-7.3061,-7.3021,-7.3069,-7.3069,-7.309,-7.3087,-7.3225,-7.3115,-7.3115,-7.3115,-7.3115,0,-7.2322,-7.2369,-7.2473,-7.2519,-7.2542,-7.2591,-7.2643,-7.269,-7.2733,-7.2743,-7.278,-7.2779,-7.2844,-7.2804,-7.2893,-7.2849,-7.2878,-7.2893,-7.2897,-7.2899,-7.2852,-7.2922,-7.3055,-7.3067,-7.2909,-7.2907,-7.2905,0,-7.2199,-7.231,-7.2321,-7.242,-7.2472,-7.2466,-7.2521,-7.2558,-7.2576,-7.2623,-7.2643,-7.2696,-7.2671,-7.2689,-7.2732,-7.2753,-7.281,-7.2746,-7.2811,-7.2813,-7.2796,-7.292,-7.2932,-7.3025,-7.2884,-7.2886,-7.2888,0,-7.2105,-7.2171,-7.2188,-7.2214,-7.2266,-7.2309,-7.2373,-7.2428,-7.2459,-7.2501,-7.2552,-7.2629,-7.2612,-7.2642,-7.2646,-7.2689,-7.2772,-7.2663,-7.2664,-7.268,-7.2875,-7.2887,-7.2902,-7.2765,-7.2768,-7.277,-7.2871,0,-7.1998,-7.2055,-7.2101,-7.2159,-7.2196,-7.2258,-7.2276,-7.2313,-7.2313,-7.2328,-7.2406,-7.2439,-7.2493,-7.2516,-7.2515,-7.2608,-7.2594,-7.2574,-7.2531,-7.2614,-7.2647,-7.2661,-7.2481,-7.248,-7.2479,-7.2478,0,0,-7.1873,-7.1954,-7.1962,-7.2023,-7.2053,-7.2043,-7.2107,-7.2136,-7.2193,-7.2215,-7.2193,-7.2303,-7.233,-7.2421,-7.2448,-7.2471,-7.2488,-7.2457,-7.2575,-7.2586,-7.2596,-7.2631,-7.2646,-7.2477,-7.2476,-7.2476,-7.2476,0,-7.1835,-7.1865,-7.1929,-7.1959,-7.2004,-7.2017,-7.2033,-7.2074,-7.2086,-7.2162,-7.2149,-7.2197,-7.2283,-7.2313,-7.2339,-7.2449,-7.2434,-7.2465,-7.2517,-7.2565,-7.2577,-7.2588,-7.2625,-7.2639,-7.2473,-7.2474,-7.2474,0,-7.1743,-7.1774,-7.1807,-7.1877,-7.1905,-7.1959,-7.192,-7.1978,-7.2018,-7.1999,-7.2072,-7.2092,-7.2133,-7.2217,-7.2255,-7.2235,-7.2384,-7.234,-7.2346,-7.2349,-7.2396,-7.2411,-7.2424,-7.2253,-7.2252,-7.2251,0,0,-7.1708,-7.1761,-7.1796,-7.1869,-7.1888,-7.1908,-7.1937,-7.1938,-7.1976,-7.199,-7.2014,-7.205,-7.2101,-7.2133,-7.2181,-7.2271,-7.2279,-7.2312,-7.2322,-7.2331,-7.2338,-7.2388,-7.2402,-7.2248,-7.2248,-7.2248,0,0,-7.169,-7.1734,-7.1727,-7.1813,-7.185,-7.1888,-7.1931,-7.1923,-7.1967,-7.1961,-7.1964,-7.1973,-7.2052,-7.2071,-7.2028,-7.2165,-7.2123,-7.2134,-7.2149,-7.2162,-7.2172,-7.2164,-7.1988,0,0,0,0,0,-7.1658,-7.1729,-7.1722,-7.1739,-7.1824,-7.1893,-7.1904,-7.1908,-7.1879,-7.1914,-7.1932,-7.1915,-7.2049,-7.201,-7.2026,-7.2073,-7.2207,-7.2215,-7.2221,-7.2262,-7.2275,-7.2287,0,0,0,0,0,0,-7.1665,-7.1685,-7.172,-7.1761,-7.178,-7.189,-7.1841,-7.1845,-7.1875,-7.1871,-7.1912,-7.1916,-7.192,-7.2002,-7.2017,-7.2061,-7.1984,-7.221,-7.2216,-7.2222,-7.2266,-7.2278,-7.2287,0,0,0,0,0,-7.167,-7.1687,-7.1823,-7.176,-7.1777,-7.18,-7.1839,-7.1841,-7.1864,-7.1892,-7.1896,-7.1865,-7.1921,-7.1934,-7.2011,-7.2054,-7.1974,-7.1979,-7.2214,-7.2219,-7.2223,-7.2272,0,0,0,0,0,0,-7.1674,-7.1689,-7.1826,-7.1832,-7.1733,-7.1794,-7.1804,-7.1838,-7.1884,-7.1888,-7.1845,-7.1841,-7.1923,-7.1932,-7.1942,-7.2052,-7.1965,-7.1971,-7.1974,-7.2218,-7.2222,-7.2225,0,0,0,0,0,0,-7.168,-7.1694,-7.1829,-7.1794,-7.1796,-7.1788,-7.1797,-7.1862,-7.1884,-7.1834,-7.1832,-7.1843,-7.1908,-7.1932,-7.1939,-7.2041,-7.1959,-7.1964,-7.1968,-7.197,-7.2221,-7.2224,0,0,0,0,0,0,-7.1686,-7.1697,-7.1793,-7.1794,-7.1795,-7.1854,-7.1846,-7.1933,-7.1856,-7.1832,-7.1849,-7.1846,-7.1908,-7.1916,-7.1937,-7.2036,-7.204,-7.1959,-7.1963,-7.1965,-7.1967,0,0,0,0,0,0,0,-7.169,-7.1612,-7.1795,-7.1794,-7.1794,-7.188,-7.1882,-7.1883,-7.1855,-7.1852,-7.185,-7.1847,-7.1929,-7.1935,-7.1941,-7.2032,0,0,-7.1959,-7.1961,0,0,0,0,0,0,0,0,-7.1608,-7.1611,-7.1796,-7.1797,-7.1798,-7.1881,-7.1882,-7.1883,-7.1855,-7.1852,-7.185,-7.1848,-7.1931,-7.1935,-7.194,0,0,0,0,0,0,0,0,0,0,0,0,0,0,0,-7.1796,-7.1797,0,-7.1881,-7.1882,-7.1883,-7.1854,-7.1852,-7.1851,-7.1849,-7.1932,-7.1936,-7.194,0,0,0,0,0,0,0,0,0,0,0,0,0,0,0,0,0,0,0,0,0,0,0,0,0,0,0,0,0,0,0,0,0,0,0,0,0,0,0,0,0,0,0,0,0,0,0,0,0,0,0,0,0,0,0,0,0,0,0,0,0,0,0,0,0,0,0,0,0]}],[{"header":{"parameterUnit":"kt","parameterCategory":2,"dx":1,"dy":1,"la1":30.253999710083008,"la2":30.299108505249023,"lo1":-89.0895004272461,"lo2":-89.04439544677734,"nx":28,"ny":28,"refTime":"2022-10-22T21:00:00:Z","depth":0,"parameterNumber":2,"parameterNumberName":"V-component_of_WINDS"},"data":[7.5331,7.5326,7.5336,7.5333,7.5342,7.5341,7.5344,7.5348,7.5353,7.5352,7.5352,7.536,7.5367,7.5368,7.5367,7.537,7.5369,7.5361,7.5365,7.5395,7.5399,7.5403,7.5406,7.5361,7.5361,7.5334,7.5333,7.5333,7.5355,7.5364,7.5365,7.5373,7.5375,7.5389,7.5395,7.5395,7.5393,7.5399,7.5399,7.5398,7.5397,7.5406,7.5406,7.5401,7.5407,7.5401,7.5401,7.5402,7.5433,7.5437,7.5397,7.5397,7.5397,7.5397,7.5397,7.5397,7.5401,7.5397,7.5408,7.5409,7.5415,7.542,7.5417,7.5427,7.5427,7.543,7.5439,7.5436,7.5441,7.5444,7.5446,7.5443,7.545,7.5445,7.5444,7.5443,7.5441,7.548,7.5443,7.5443,7.5443,7.5443,7.5443,0,7.5437,7.5446,7.5448,7.5453,7.5454,7.5457,7.5462,7.546,7.5478,7.5477,7.5475,7.5475,7.5475,7.5473,7.5473,7.5476,7.5487,7.5489,7.5485,7.5481,7.5479,7.5481,7.5533,7.5489,7.549,7.549,7.549,7.549,7.5485,7.5478,7.5493,7.5493,7.5498,7.5497,7.5497,7.5514,7.5514,7.552,7.5514,7.5513,7.5512,7.5505,7.5513,7.5511,7.5516,7.5499,7.5515,7.5513,7.5516,7.5516,7.5516,7.5495,7.5494,7.5494,7.5493,0,7.551,7.5526,7.5518,7.5533,7.5537,7.5528,7.554,7.5535,7.5544,7.5537,7.5537,7.555,7.5546,7.5557,7.5553,7.5558,7.5543,7.5548,7.5542,7.5544,7.553,7.5531,7.5481,7.5476,7.5523,7.5523,7.5522,0,7.5557,7.5547,7.557,7.5565,7.5554,7.5572,7.556,7.5567,7.5572,7.5567,7.5583,7.5578,7.5592,7.5588,7.5596,7.5584,7.5583,7.5586,7.5588,7.5585,7.5585,7.5583,7.5585,7.5593,7.5593,7.5593,7.5593,0,7.5596,7.5596,7.5587,7.5589,7.5603,7.5598,7.5602,7.5608,7.5607,7.5608,7.5608,7.5606,7.5605,7.5603,7.5613,7.5624,7.5599,7.5616,7.5602,7.5602,7.5595,7.5595,7.555,7.5594,7.5594,7.5594,7.5594,0,7.5635,7.5638,7.5623,7.5635,7.5634,7.5627,7.5629,7.5625,7.5629,7.5635,7.5635,7.5646,7.5636,7.5653,7.564,7.5652,7.5649,7.5652,7.5651,7.565,7.5668,7.5641,7.5597,7.5593,7.565,7.5651,7.5651,0,7.5676,7.5665,7.568,7.5664,7.566,7.568,7.5673,7.5676,7.5682,7.5679,7.5684,7.5679,7.5693,7.5692,7.5685,7.569,7.5674,7.5692,7.5683,7.5683,7.5683,7.5643,7.5634,7.5606,7.5657,7.5657,7.5656,0,7.5709,7.5727,7.5722,7.5726,7.5734,7.573,7.5721,7.572,7.5717,7.5718,7.571,7.5701,7.5713,7.571,7.5718,7.5709,7.5685,7.5721,7.5721,7.5715,7.5661,7.5653,7.5648,7.5692,7.5691,7.5691,7.5661,0,7.5767,7.5762,7.5752,7.5758,7.5756,7.5746,7.5759,7.5756,7.5765,7.5772,7.576,7.5762,7.5758,7.5754,7.5761,7.5739,7.5743,7.5754,7.5769,7.5743,7.5733,7.5729,7.5783,7.5784,7.5784,7.5784,0,0,7.5802,7.5796,7.5812,7.5805,7.5804,7.5824,7.5812,7.5814,7.5815,7.5814,7.5823,7.581,7.5811,7.5794,7.5787,7.5784,7.5781,7.5789,7.5755,7.5752,7.5749,7.5739,7.5735,7.5785,7.5785,7.5785,7.5786,0,7.5826,7.5831,7.582,7.5823,7.5828,7.5836,7.5834,7.5841,7.5844,7.5832,7.5846,7.5839,7.5826,7.5826,7.5824,7.5792,7.5801,7.5789,7.5769,7.5759,7.5756,7.5752,7.5741,7.5737,7.5787,7.5787,7.5787,0,7.5862,7.5869,7.5865,7.5866,7.5868,7.5862,7.5884,7.5876,7.5871,7.5888,7.5875,7.5878,7.5877,7.5859,7.5851,7.5858,7.5819,7.5832,7.583,7.5828,7.5819,7.5815,7.5811,7.5865,7.5865,7.5865,0,0,7.588,7.5876,7.5887,7.5872,7.5873,7.5884,7.5881,7.589,7.5891,7.5891,7.5893,7.5892,7.5885,7.588,7.5874,7.5852,7.5853,7.5841,7.5838,7.5835,7.5832,7.5822,7.5817,7.5866,7.5866,7.5866,0,0,7.5888,7.5902,7.5912,7.5896,7.5898,7.5905,7.5894,7.5906,7.5902,7.5904,7.5915,7.5915,7.5898,7.5898,7.591,7.5879,7.5894,7.5892,7.5879,7.5875,7.5871,7.5871,7.5929,0,0,0,0,0,7.5919,7.5901,7.591,7.5909,7.5908,7.5901,7.5901,7.5912,7.5923,7.5915,7.5919,7.5929,7.5907,7.5918,7.5915,7.5902,7.5878,7.5876,7.5874,7.5853,7.5848,7.5844,0,0,0,0,0,0,7.5919,7.5918,7.591,7.5917,7.5917,7.5902,7.5924,7.5927,7.5925,7.5927,7.5928,7.5929,7.5936,7.592,7.5917,7.5904,7.5929,7.5877,7.5875,7.5874,7.5851,7.5847,7.5844,0,0,0,0,0,7.5919,7.5918,7.5914,7.5918,7.5917,7.5928,7.5925,7.5927,7.5925,7.5931,7.5932,7.5934,7.5935,7.5934,7.5918,7.5905,7.5931,7.593,7.5876,7.5875,7.5873,7.5849,0,0,0,0,0,0,7.5919,7.5919,7.5914,7.5915,7.5926,7.5929,7.593,7.5928,7.593,7.5931,7.5938,7.5939,7.5934,7.5933,7.5932,7.5905,7.5933,7.5932,7.5931,7.5875,7.5874,7.5873,0,0,0,0,0,0,7.592,7.5919,7.5914,7.5924,7.5925,7.5929,7.593,7.5918,7.5929,7.5936,7.5938,7.5938,7.5935,7.5933,7.5932,7.5912,7.5934,7.5933,7.5932,7.5932,7.5874,7.5873,0,0,0,0,0,0,7.592,7.5919,7.5924,7.5925,7.5926,7.593,7.5918,7.5915,7.5941,7.5935,7.5943,7.5944,7.5934,7.5934,7.5932,7.5912,7.5912,7.5934,7.5933,7.5933,7.5932,0,0,0,0,0,0,0,7.592,7.592,7.5913,7.5926,7.5927,7.5917,7.5917,7.5917,7.5941,7.5942,7.5943,7.5944,7.5939,7.5938,7.5937,7.5912,0,0,7.5934,7.5933,0,0,0,0,0,0,0,0,7.592,7.592,7.5913,7.5913,7.5913,7.5917,7.5917,7.5917,7.5941,7.5942,7.5943,7.5943,7.5939,7.5938,7.5937,0,0,0,0,0,0,0,0,0,0,0,0,0,0,0,7.5913,7.5913,0,7.5917,7.5917,7.5917,7.5941,7.5942,7.5942,7.5943,7.5938,7.5938,7.5937,0,0,0,0,0,0,0,0,0,0,0,0,0,0,0,0,0,0,0,0,0,0,0,0,0,0,0,0,0,0,0,0,0,0,0,0,0,0,0,0,0,0,0,0,0,0,0,0,0,0,0,0,0,0,0,0,0,0,0,0,0,0,0,0,0,0,0,0,0]}]]]